Radiation Dose at Monitoring Post of Fukushima Daini Nuclear Power Station
Date,Time,MP-1(microSv/h),MP-2(microSv/h),MP-3(microSv/h),MP-4(microSv/h),MP-5(microSv/h),MP-6(microSv/h),MP-7(microSv/h),Wind Direction,Wind Velocity(m/s),Rain
2023/11/03,00:00,0.149,0.134,0.216,0.206,0.210,0.123,0.078,west-southwest,4.1,No
2023/11/03,00:10,0.150,0.136,0.217,0.206,0.211,0.122,0.078,west-southwest,1.7,No
2023/11/03,00:20,0.150,0.136,0.217,0.205,0.210,0.122,0.078,south-southwest,1.5,No
2023/11/03,00:30,0.149,0.135,0.217,0.207,0.211,0.122,0.078,south-southwest,1.4,No
2023/11/03,00:40,0.149,0.135,0.219,0.205,0.209,0.122,0.077,southwest,2.5,No
2023/11/03,00:50,0.149,0.135,0.218,0.206,0.210,0.123,0.078,south-southwest,3.0,No
2023/11/03,01:00,0.149,0.134,0.216,0.205,0.209,0.122,0.077,south-southwest,2.9,No
2023/11/03,01:10,0.148,0.135,0.218,0.206,0.211,0.122,0.078,south-southwest,2.4,No
2023/11/03,01:20,0.149,0.134,0.217,0.206,0.210,0.122,0.077,southwest,2.5,No
2023/11/03,01:30,0.149,0.135,0.217,0.205,0.211,0.121,0.077,southwest,2.7,No
2023/11/03,01:40,0.149,0.135,0.218,0.206,0.210,0.122,0.077,southwest,3.6,No
2023/11/03,01:50,0.149,0.135,0.218,0.206,0.211,0.122,0.078,south-southwest,3.4,No
2023/11/03,02:00,0.149,0.136,0.217,0.205,0.210,0.122,0.078,south,3.6,No
2023/11/03,02:10,0.149,0.134,0.218,0.205,0.210,0.122,0.077,south-southwest,3.3,No
2023/11/03,02:20,0.148,0.135,0.217,0.205,0.210,0.121,0.078,south-southwest,2.7,No
2023/11/03,02:30,0.149,0.135,0.218,0.204,0.210,0.122,0.078,south-southwest,2.6,No
2023/11/03,02:40,0.148,0.134,0.217,0.206,0.211,0.122,0.078,southwest,1.7,No
2023/11/03,02:50,0.149,0.135,0.217,0.205,0.209,0.122,0.077,southwest,1.8,No
2023/11/03,03:00,0.149,0.134,0.217,0.204,0.211,0.122,0.078,south-southwest,2.1,No
2023/11/03,03:10,0.148,0.134,0.218,0.206,0.210,0.122,0.078,southwest,2.8,No
2023/11/03,03:20,0.148,0.135,0.216,0.205,0.211,0.123,0.078,southwest,2.7,No
2023/11/03,03:30,0.148,0.135,0.218,0.206,0.209,0.122,0.078,southwest,1.5,No
2023/11/03,03:40,0.149,0.135,0.217,0.205,0.212,0.122,0.078,southwest,1.9,No
2023/11/03,03:50,0.148,0.134,0.217,0.207,0.210,0.122,0.078,southwest,2.2,No
2023/11/03,04:00,0.149,0.135,0.218,0.206,0.210,0.122,0.078,southwest,2.6,No
2023/11/03,04:10,0.149,0.136,0.218,0.205,0.212,0.123,0.078,south,3.0,No
2023/11/03,04:20,0.149,0.136,0.217,0.205,0.210,0.123,0.078,south,2.9,No
2023/11/03,04:30,0.148,0.135,0.217,0.207,0.211,0.122,0.078,south-southeast,2.8,No
2023/11/03,04:40,0.150,0.135,0.217,0.205,0.210,0.122,0.078,south-southeast,2.9,No
2023/11/03,04:50,0.149,0.135,0.216,0.205,0.212,0.122,0.079,south,2.5,No
2023/11/03,05:00,0.149,0.136,0.218,0.205,0.212,0.123,0.078,south-southeast,1.8,No
2023/11/03,05:10,0.149,0.136,0.218,0.205,0.210,0.123,0.078,south-southeast,2.0,No
2023/11/03,05:20,0.149,0.135,0.217,0.205,0.212,0.122,0.079,south-southwest,2.5,No
2023/11/03,05:30,0.149,0.135,0.218,0.205,0.210,0.123,0.078,south,2.6,No
2023/11/03,05:40,0.148,0.135,0.218,0.206,0.212,0.122,0.078,south,2.9,No
2023/11/03,05:50,0.149,0.135,0.218,0.205,0.211,0.122,0.079,south-southwest,2.7,No
2023/11/03,06:00,0.149,0.136,0.217,0.205,0.211,0.123,0.077,south-southwest,2.9,No
2023/11/03,06:10,0.149,0.135,0.217,0.206,0.212,0.122,0.077,south-southwest,2.9,No
2023/11/03,06:20,0.150,0.135,0.216,0.206,0.209,0.124,0.078,southwest,2.7,No
2023/11/03,06:30,0.148,0.135,0.217,0.204,0.211,0.124,0.077,southwest,2.8,No
2023/11/03,06:40,0.148,0.135,0.217,0.204,0.209,0.122,0.077,west-southwest,2.2,No
2023/11/03,06:50,0.150,0.135,0.217,0.205,0.211,0.122,0.078,west-southwest,1.1,No
2023/11/03,07:00,0.148,0.135,0.217,0.205,0.209,0.122,0.078,southwest,1.5,No
2023/11/03,07:10,0.149,0.134,0.217,0.205,0.209,0.123,0.078,southwest,1.8,No
2023/11/03,07:20,0.150,0.135,0.217,0.206,0.211,0.122,0.077,south-southwest,1.5,No
2023/11/03,07:30,0.149,0.134,0.218,0.204,0.210,0.122,0.078,west-southwest,1.2,No
2023/11/03,07:40,0.149,0.135,0.217,0.205,0.210,0.123,0.078,west-southwest,0.8,No
2023/11/03,07:50,0.148,0.135,0.216,0.204,0.209,0.122,0.078,southwest,0.7,No
2023/11/03,08:00,0.150,0.134,0.219,0.206,0.211,0.122,0.077,southwest,1.1,No
2023/11/03,08:10,0.148,0.135,0.216,0.203,0.211,0.122,0.078,southwest,0.8,No
2023/11/03,08:20,0.150,0.136,0.217,0.205,0.210,0.123,0.078,-,CALM,No
2023/11/03,08:30,0.150,0.134,0.218,0.204,0.211,0.123,0.077,south-southwest,0.6,No
2023/11/03,08:40,0.148,0.135,0.217,0.205,0.210,0.122,0.077,south-southwest,0.6,No
2023/11/03,08:50,0.150,0.135,0.217,0.205,0.210,0.123,0.079,-,CALM,No
2023/11/03,09:00,0.148,0.136,0.216,0.204,0.210,0.123,0.078,south,0.6,No
2023/11/03,09:10,0.150,0.134,0.218,0.206,0.212,0.123,0.077,south-southwest,1.6,No
2023/11/03,09:20,0.149,0.135,0.217,0.205,0.210,0.123,0.078,south-southwest,1.4,No
2023/11/03,09:30,0.149,0.135,0.218,0.203,0.210,0.122,0.079,south,1.2,No
2023/11/03,09:40,0.149,0.135,0.216,0.206,0.210,0.123,0.078,south,1.9,No
2023/11/03,09:50,0.148,0.135,0.217,0.205,0.209,0.122,0.077,south,3.0,No
2023/11/03,10:00,0.148,0.134,0.216,0.203,0.208,0.122,0.077,south,3.1,No
2023/11/03,10:10,0.148,0.134,0.217,0.205,0.207,0.123,0.078,south-southeast,3.3,No
2023/11/03,10:20,0.147,0.135,0.217,0.206,0.210,0.122,0.077,south-southeast,3.3,No
2023/11/03,10:30,0.147,0.135,0.216,0.205,0.211,0.122,0.077,southeast,3.1,No
2023/11/03,10:40,0.147,0.133,0.214,0.204,0.210,0.123,0.079,south,4.0,No
2023/11/03,10:50,0.147,0.134,0.214,0.203,0.208,0.123,0.078,south-southeast,5.6,No
2023/11/03,11:00,0.146,0.135,0.216,0.202,0.209,0.122,0.077,south-southeast,6.4,No
2023/11/03,11:10,0.147,0.136,0.218,0.203,0.207,0.122,0.078,south-southeast,6.1,No
2023/11/03,11:20,0.146,0.135,0.216,0.206,0.207,0.122,0.077,south-southeast,7.3,No
2023/11/03,11:30,0.146,0.135,0.215,0.205,0.209,0.123,0.077,south-southeast,6.8,No
2023/11/03,11:40,0.147,0.133,0.214,0.205,0.207,0.123,0.078,south-southeast,6.4,No
2023/11/03,11:50,0.147,0.133,0.214,0.203,0.208,0.122,0.078,south-southeast,6.6,No
2023/11/03,12:00,0.147,0.133,0.215,0.203,0.211,0.122,0.078,south-southeast,7.7,No
2023/11/03,12:10,0.146,0.134,0.218,0.202,0.212,0.122,0.077,south-southeast,7.5,No
2023/11/03,12:20,0.146,0.133,0.216,0.205,0.210,0.122,0.077,south-southeast,7.8,No
2023/11/03,12:30,0.148,0.132,0.217,0.207,0.211,0.121,0.077,south,6.7,No
2023/11/03,12:40,0.147,0.133,0.215,0.205,0.210,0.122,0.077,south,8.4,No
2023/11/03,12:50,0.147,0.134,0.215,0.205,0.208,0.122,0.077,south-southeast,8.6,No
2023/11/03,13:00,0.146,0.133,0.215,0.204,0.208,0.122,0.077,south,9.0,No
2023/11/03,13:10,0.148,0.134,0.214,0.204,0.208,0.122,0.077,south-southeast,8.1,No
2023/11/03,13:20,0.147,0.136,0.218,0.203,0.207,0.122,0.076,south,9.3,No
2023/11/03,13:30,0.147,0.135,0.218,0.203,0.207,0.122,0.077,south,8.4,No
2023/11/03,13:40,0.146,0.135,0.217,0.206,0.208,0.123,0.076,south,8.6,No
2023/11/03,13:50,0.147,0.134,0.215,0.206,0.211,0.122,0.077,south-southeast,8.4,No
2023/11/03,14:00,0.149,0.133,0.217,0.204,0.211,0.121,0.078,south-southeast,8.9,No
2023/11/03,14:10,0.151,0.133,0.217,0.204,0.209,0.121,0.076,south-southeast,8.3,No
2023/11/03,14:20,0.148,0.135,0.216,0.206,0.210,0.122,0.077,south-southeast,8.7,No
2023/11/03,14:30,0.149,0.134,0.218,0.206,0.212,0.122,0.078,south-southeast,9.2,No
2023/11/03,14:40,0.150,0.134,0.219,0.204,0.211,0.121,0.077,south-southeast,8.4,No
2023/11/03,14:50,0.148,0.134,0.216,0.206,0.210,0.121,0.077,south-southeast,7.2,No
2023/11/03,15:00,0.148,0.135,0.218,0.207,0.211,0.121,0.077,south,6.6,No
2023/11/03,15:10,0.150,0.133,0.216,0.205,0.209,0.122,0.077,south,5.8,No
2023/11/03,15:20,0.148,0.135,0.218,0.207,0.209,0.122,0.077,south,4.7,No
2023/11/03,15:30,0.148,0.135,0.218,0.206,0.212,0.122,0.078,south,5.1,No
2023/11/03,15:40,0.149,0.135,0.216,0.206,0.209,0.122,0.077,south,5.5,No
2023/11/03,15:50,0.148,0.135,0.218,0.207,0.210,0.122,0.077,south,5.6,No
2023/11/03,16:00,0.149,0.134,0.216,0.205,0.211,0.121,0.078,south,6.1,No
2023/11/03,16:10,0.148,0.135,0.218,0.206,0.209,0.122,0.077,south-southwest,7.1,No
2023/11/03,16:20,0.148,0.135,0.218,0.206,0.210,0.123,0.077,south-southwest,6.6,No
2023/11/03,16:30,0.149,0.134,0.217,0.205,0.211,0.122,0.077,south-southwest,6.7,No
2023/11/03,16:40,0.149,0.135,0.218,0.207,0.209,0.121,0.077,south-southwest,5.8,No
2023/11/03,16:50,0.150,0.136,0.216,0.206,0.211,0.122,0.078,south-southwest,4.6,No
2023/11/03,17:00,0.148,0.135,0.218,0.205,0.210,0.121,0.078,south,4.9,No
2023/11/03,17:10,0.149,0.135,0.216,0.207,0.212,0.123,0.077,south,5.1,No
2023/11/03,17:20,0.148,0.135,0.218,0.206,0.210,0.122,0.077,south,6.8,No
2023/11/03,17:30,0.149,0.134,0.217,0.207,0.211,0.122,0.077,south,6.1,No
2023/11/03,17:40,0.148,0.135,0.218,0.205,0.211,0.123,0.077,south,4.8,No
2023/11/03,17:50,0.149,0.136,0.217,0.207,0.210,0.122,0.077,south,4.7,No
2023/11/03,18:00,0.148,0.135,0.217,0.205,0.211,0.123,0.078,south,3.5,No
2023/11/03,18:10,0.149,0.136,0.218,0.207,0.209,0.122,0.076,south-southwest,3.7,No
2023/11/03,18:20,0.149,0.134,0.218,0.206,0.211,0.122,0.078,south,4.2,No
2023/11/03,18:30,0.149,0.134,0.218,0.207,0.209,0.123,0.077,south,4.3,No
2023/11/03,18:40,0.149,0.135,0.217,0.206,0.210,0.121,0.077,south,4.3,No
2023/11/03,18:50,0.149,0.134,0.219,0.207,0.209,0.123,0.078,south,4.1,No
2023/11/03,19:00,0.149,0.136,0.217,0.205,0.211,0.123,0.078,south,4.1,No
2023/11/03,19:10,0.150,0.134,0.217,0.207,0.210,0.121,0.077,south,3.8,No
2023/11/03,19:20,0.149,0.135,0.217,0.205,0.212,0.123,0.077,south-southwest,4.1,No
2023/11/03,19:30,0.150,0.135,0.219,0.207,0.210,0.122,0.078,south,5.2,No
2023/11/03,19:40,0.149,0.135,0.217,0.205,0.211,0.122,0.077,south-southwest,5.9,No
2023/11/03,19:50,0.148,0.136,0.218,0.206,0.209,0.122,0.078,south-southwest,6.4,No
2023/11/03,20:00,0.149,0.134,0.217,0.206,0.212,0.123,0.078,south-southwest,6.5,No
2023/11/03,20:10,0.150,0.136,0.217,0.207,0.210,0.122,0.078,south-southwest,5.3,No
2023/11/03,20:20,0.149,0.134,0.219,0.205,0.213,0.122,0.078,south-southwest,5.8,No
2023/11/03,20:30,0.150,0.136,0.218,0.207,0.210,0.123,0.078,south-southwest,5.8,No
2023/11/03,20:40,0.149,0.136,0.219,0.206,0.212,0.122,0.078,south-southwest,5.9,No
2023/11/03,20:50,0.150,0.134,0.218,0.206,0.209,0.122,0.078,southwest,6.1,No
2023/11/03,21:00,0.148,0.136,0.218,0.207,0.211,0.122,0.078,south-southwest,5.9,No
2023/11/03,21:10,0.150,0.135,0.219,0.206,0.210,0.122,0.078,southwest,5.8,No
2023/11/03,21:20,0.149,0.136,0.218,0.206,0.213,0.123,0.078,southwest,3.7,No
2023/11/03,21:30,0.149,0.136,0.219,0.207,0.210,0.122,0.079,southwest,3.8,No
2023/11/03,21:40,0.150,0.135,0.218,0.206,0.212,0.122,0.078,west-southwest,2.3,No
2023/11/03,21:50,0.150,0.135,0.217,0.207,0.211,0.122,0.077,west-southwest,3.0,No
2023/11/03,22:00,0.149,0.136,0.219,0.206,0.211,0.123,0.078,southwest,2.0,No
2023/11/03,22:10,0.148,0.135,0.217,0.207,0.210,0.122,0.078,west-southwest,1.8,No
2023/11/03,22:20,0.150,0.136,0.218,0.206,0.211,0.122,0.078,west-southwest,2.7,No
2023/11/03,22:30,0.149,0.135,0.218,0.207,0.210,0.122,0.077,southwest,3.3,No
2023/11/03,22:40,0.149,0.136,0.218,0.206,0.211,0.123,0.078,south-southwest,3.3,No
2023/11/03,22:50,0.149,0.136,0.219,0.207,0.209,0.123,0.078,south-southwest,4.7,No
2023/11/03,23:00,0.149,0.135,0.217,0.205,0.211,0.122,0.078,southwest,5.1,No
2023/11/03,23:10,0.149,0.136,0.218,0.206,0.209,0.121,0.079,southwest,4.1,No
2023/11/03,23:20,0.149,0.135,0.219,0.207,0.211,0.122,0.078,southwest,3.7,No
2023/11/03,23:30,0.149,0.136,0.218,0.206,0.210,0.122,0.078,southwest,4.4,No
2023/11/03,23:40,0.148,0.136,0.219,0.207,0.212,0.123,0.078,southwest,5.7,No
2023/11/03,23:50,0.150,0.135,0.217,0.205,0.210,0.123,0.078,southwest,5.2,No
